Find Starlink 31018

NORAD ID: 58635 Int'l Des: 2023-203 Owner: SPXS Country: US Constellation: starlink operational
LEOCIRCULAR

Live Position

Loading 3D Globe...

About Starlink 31018

Description loading...

Upcoming Passes

Passes for default location (London). Set your location on the main map for personalized predictions.

Altitude History

Loading altitude history...

Two-Line Element Set

1 58635U 23203T 26132.87103109 .00000567 00000-0 30140-4 0 9990
2 58635 43.0046 64.9307 0001183 272.4465 87.6251 15.27576064134604
Epoch: May 12, 2026 • Age: 10 hours

Current Status

Altitude 483.4 km
Velocity 7.63 km/s
Sub-Earth Point -3.91°S, 91.3°W
Launch Date Dec 23, 2023
Age 2.3 years
Type internet

Technical Details

Classification Payload
Mass 730.00 kg
Dry Mass 700.00 kg
Total Mass 730.00 kg
Length 0.30 m
Diameter 4.10 m
Span 29.00 m
Shape Box + pan
Manufacturer SPXS
Bus Type Starlink V2M
Phase Status In Orbit
Owner/State SPXS/US

Most Searched